Weather Roundup
Issued by NWS Chicago, IL

Home | Current Version | Previous Version | Graphics & Text | Print | Product List | Glossary On
Versions: 1 2 3 4 5 6 7 8 9 10 11 12 13 14 15 16 17 18 19 20 21 22 23 24 25 26 27 28 29 30 31 32 33 34 35 36 37 38 39 40 41 42 43 44 45 46 47 48 49 50
000
NZUS59 KLOT 281408
HRRLOT

CHICAGO AREA WEATHER ROUNDUP
NATIONAL WEATHER SERVICE CHICAGO/ROMEOVILLE IL
800 AM CST TUE FEB 28 2017

NOTE: "FAIR" INDICATES FEW OR NO CLOUDS BELOW 12,000 FEET WITH NO
SIGNIFICANT WEATHER AND/OR OBSTRUCTIONS TO VISIBILITY.

* THESE STATIONS ARE NOT UNDER NWS QUALITY CONTROL. THEY ALSO MAY NOT
  REPORT WEATHER SUCH AS PRECIPITATION OR FOG.

ILZ005-006-012>014-019>023-281500-
NORTHEAST ILLINOIS

CITY           SKY/WX    TMP DP  RH WIND       PRES   REMARKS
OHARE          CLOUDY    52  47  83 S12       29.82R
MIDWAY         CLOUDY    51  46  83 S17G28    29.83R
AURORA         CLOUDY    50  47  89 S14       29.82R
LANSING*       CLOUDY    49  48  96 S14       29.86R
JOLIET*        CLOUDY    52  50  92 S14       29.84S
WAUKEGAN       CLOUDY    45  43  93 S6        29.80S FOG
DUPAGE AIRPORT CLOUDY    51  46  83 S15       29.82R
WHEELING       CLOUDY    50  46  86 S12       29.83R
KANKAKEE*      CLOUDY    50  48  93 S14       29.88R
MORRIS*        CLOUDY    50  48  92 S14G20    29.81F
LEWIS AIRPORT* CLOUDY    49  49  99 S14       29.84R
NORTHERLY ISL    N/A     50  45  83 S15         N/A
$$

WIZ051-052-058>065-066-070>072-281500-
SOUTHEAST WISCONSIN

CITY           SKY/WX    TMP DP  RH WIND       PRES   REMARKS
MILWAUKEE      CLOUDY    44  41  89 CALM      29.81R FOG
KENOSHA*       CLOUDY    45  43  93 S6        29.80S FOG
RACINE*        CLOUDY    43  41  93 S9        29.83R FOG
WAUKESHA       FOG       41  41 100 SE7       29.81R VSB 1
WEST BEND      FOG       39  39 100 SE3       29.80R VSB 1/4
$$

INZ001>003-010>013-019-020-281500-
NORTHWEST INDIANA

CITY           SKY/WX    TMP DP  RH WIND       PRES   REMARKS
GARY*          CLOUDY    50  46  87 S12G23    29.86F
MICHIGAN CITY* NOT AVBL
RENSSELAER*    NOT AVBL
VALPARAISO     CLOUDY    49  47  93 S13       29.89F
$$

LMZ740>746-281500-
SOUTHERN LAKE MICHIGAN

STATION/POSITION TIME  SKY/WX   TEMP WIND        PRES    VSBY
                                AIR  DIR/SP/G
                 (UTC)          (F)  (DEG/KT/KT) (MB)    (MI)
HARRISON CRIB    1340            47  180/ 27/ 28   N/A
BURNHAM HARBOR   1400            50  180/ 13/ 15   N/A
CALUMET HARBOR   1348            50  170/ 12/ 16 1010.1R
BURNS HARBOR     1340            49  170/ 14/ 22 1011.9F
MICHIGAN CITY    1340            48  140/ 15/ 19   N/A
$$

ABBREVIATIONS USED IN REMARKS
   TC - TEMPERATURE IN CELSIUS
  WCI - WIND CHILL INDEX
   HX - HEAT INDEX
  VSB - VISIBILITY
$$



USA.gov is the U.S. government's official web portal to all federal, state and local government web resources and services.